Location: Bothwell
(41.7170°N, 112.2589°W)
Time: 00:32:23
(UTC+00:00)

Tiros 1 - Visible Passes

Search period start: 12 May 2026 00:00
Search period end: 22 May 2026 00:00
Orbit: 618 x 648 km, 48.4° (Epoch: 11 May)

Date Brightness Start Highest point End Pass type
(mag) Time Alt. Az. Time Alt. Az. Time Alt. Az.
12 May 9.2 08:00:33 19° ENE 08:00:33 19° ENE 08:01:57 10° ENE visible
12 May 7.8 09:37:54 34° WNW 09:39:27 48° NNW 09:43:53 10° ENE visible
12 May 8.5 11:17:47 10° WNW 11:21:59 35° N 11:26:12 10° ENE visible
13 May 8.2 08:20:37 39° ENE 08:20:37 39° ENE 08:23:32 10° ENE visible
13 May 8.3 09:57:57 16° WNW 10:01:13 37° N 10:05:29 10° ENE visible
14 May 7.7 08:40:38 54° NNW 08:40:38 54° NNW 08:45:03 10° ENE visible
14 May 8.6 10:18:50 10° WNW 10:23:03 35° N 10:27:14 10° ENE visible
15 May 9.1 07:23:16 20° ENE 07:23:16 20° ENE 07:24:42 10° ENE visible
15 May 8.2 09:00:35 29° WNW 09:02:16 40° NNW 09:06:36 10° ENE visible
15 May 8.5 10:40:34 10° WNW 10:44:52 38° N 10:49:08 10° ENE visible
16 May 8.2 07:43:07 39° NE 07:43:07 39° NE 07:46:12 10° ENE visible
16 May 8.5 09:20:27 13° WNW 09:24:05 35° N 09:28:18 10° ENE visible
16 May 8.0 11:02:09 10° WNW 11:06:37 50° NNE 11:11:02 10° E visible
17 May 9.6 06:25:33 12° ENE 06:25:33 12° ENE 06:25:49 10° ENE visible
17 May 8.1 08:02:52 41° NNW 08:03:20 43° NNW 08:07:44 10° ENE visible
17 May 8.5 09:41:40 10° WNW 09:45:56 36° N 09:50:10 10° ENE visible
17 May 7.3 11:23:40 10° WNW 11:28:15 77° NNE 11:32:48 10° ESE visible
18 May 8.6 06:45:01 29° NE 06:45:01 29° NE 06:47:22 10° ENE visible
18 May 8.5 08:22:17 18° WNW 08:25:08 36° N 08:29:23 10° ENE visible
18 May 8.2 10:03:17 10° WNW 10:07:42 45° NNE 10:12:05 10° E visible
19 May 9.4 05:26:28 13° ENE 05:26:28 13° ENE 05:26:57 10° ENE visible
19 May 8.0 07:03:39 42° NW 07:04:25 47° NNW 07:08:52 10° ENE visible
19 May 8.6 08:42:43 10° WNW 08:46:58 35° N 08:51:12 10° ENE visible
19 May 7.4 10:24:48 10° WNW 10:29:23 66° NNE 10:33:54 10° ESE visible
20 May 8.1 03:58:40 10° S 04:02:22 23° SE 04:06:02 10° E visible
20 May 7.1 05:39:13 10° WSW 05:43:53 82° NNW 05:48:31 10° ENE visible
20 May 8.5 07:21:52 10° WNW 07:26:11 37° N 07:30:28 10° ENE visible
20 May 8.3 09:04:24 10° WNW 09:08:46 41° NNE 09:13:06 10° E visible
20 May 7.0 10:46:20 10° WNW 10:50:54 74° SSW 10:55:26 10° SE visible
21 May 7.3 04:19:09 10° SW 04:23:36 46° SE 04:28:02 10° ENE visible
21 May 7.8 06:00:57 10° W 06:05:30 52° NNW 06:10:01 10° ENE visible
21 May 8.6 07:43:45 10° WNW 07:48:01 35° N 07:52:14 10° ENE visible
21 May 7.6 09:25:56 10° WNW 09:30:29 58° NNE 09:34:59 10° E visible
21 May 7.5 11:08:01 10° WNW 11:12:16 38° SW 11:16:28 10° SSE visible
